Regional Weather Roundup
Issued by NWS Bismarck, ND

Home | Current Version | Previous Version | Text Only | Print | Product List | Glossary On
Versions: 1 2 3 4 5 6 7 8 9 10 11 12 13 14 15 16 17 18 19 20 21 22 23 24 25 26 27 28 29 30 31 32 33 34 35 36 37 38 39 40 41 42 43 44 45 46 47 48 49 50
000
ASUS43 KBIS 250810
RWRBIS

NWR BROADCAST TEXT
NATIONAL WEATHER SERVICE BISMARCK ND
300 AM CDT THU MAY 25 2017

NOTE: "FAIR" INDICATES FEW OR NO CLOUDS BELOW 12,000 FEET WITH NO
SIGNIFICANT WEATHER AND/OR OBSTRUCTIONS TO VISIBILITY.


CITY           SKY/WX    TMP DP  RH WIND       PRES   REMARKS
WILLISTON      FAIR      49  47  93 SW8       29.37S
MINOT          LGT RAIN  55  50  83 SE10      29.40F
MINOT AFB      CLOUDY    54  53  95 S7        29.39F
BISMARCK       LGT RAIN  54  48  80 SE15      29.41F
DICKINSON      CLOUDY    50  47  89 NE9       29.37F
GARRISON         N/A     51  48  89 SE7       29.41F
HETTINGER ARPT FAIR      51  48  89 N8        29.39F
JAMESTOWN      FAIR      50  42  74 SE15      29.53F
HAZEN          CLOUDY    52  52 100 E5        29.44F
LINTON         CLOUDY    52  52 100 SE22G29   29.46R
MANDAN         CLOUDY    52  48  87 SE16G22   29.41F
STANLEY        CLOUDY    52  52 100 SE13      29.38F
TIOGA          FAIR      50  50 100 S15       29.38R
WATFORD CITY   CLOUDY    52  52 100 SE9       29.37F
$$

CITY           SKY/WX    TMP DP  RH WIND       PRES   REMARKS
GRAND FORKS    FAIR      50  43  77 SE10      29.60S
GRAND FORKS AF FAIR      49  42  76 SE10      29.60R
DEVILS LAKE    FAIR      51  43  74 SE21      29.54S
FARGO          FAIR      53  42  66 SE13      29.61R
CAVALIER       FAIR      54  43  66 SE9G15    29.58S
GRAFTON        FAIR      48  43  81 SE9       29.62S
GWINNER        SUNNY     48  45  87 MISG      29.56F
LANGDON        FAIR      50  43  76 SE22G28   29.56S
ROLLA          FAIR      52  45  76 S17G24    29.51S
$$

CITY           SKY/WX    TMP DP  RH WIND       PRES   REMARKS
ABERDEEN       FAIR      51  41  68 SE21G32   29.48F
MOBRIDGE       FAIR      54  45  71 E12       29.40R
BUFFALO          N/A     50  45  83 N9        29.36R
RAPID CITY     FAIR      57  45  64 NW22G29   29.40R
GLASGOW        FAIR      46  22  38 CALM      29.35S
WOLF POINT     FAIR      46  24  42 CALM      29.36S
GLENDIVE       FAIR      43  38  82 W5        29.42S
MILES CITY     FAIR      48  20  32 W6        29.45S
BAKER          FAIR      43  42  97 SW5       29.44S
$$

CITY           SKY/WX    TMP DP  RH WIND       PRES   REMARKS
BILLINGS       FAIR      50  20  30 W14       29.54R
GREAT FALLS    LGT RAIN  42  37  82 W23G30    29.57S
REGINA         CLEAR     39  30  70 S12       29.24F
ESTEVAN        PTCLDY    50  48  93 S13       29.33R
$$





USA.gov is the U.S. government's official web portal to all federal, state and local government web resources and services.